Location: Prague
(50.0830°N, 14.4670°E)
Time: 23:12:14
(UTC+01:00)

AO-91 - Visible Passes

Search period start: 22 March 2023 00:00
Search period end: 01 April 2023 01:00
Orbit: 448 x 781 km, 97.6° (Epoch: 22 March)

Date Brightness Start Highest point End Pass type
(mag) Time Alt. Az. Time Alt. Az. Time Alt. Az.
22 Mar ? 00:25:56 10° NNW 00:26:04 10° NW 00:26:04 10° NW visible
22 Mar ? 21:27:52 10° NE 21:27:54 10° NE 21:27:54 10° NE visible
22 Mar ? 23:03:29 10° N 23:04:57 20° N 23:04:57 20° N visible
23 Mar ? 21:43:07 10° NNE 21:43:49 14° NE 21:43:49 14° NE visible
23 Mar ? 23:19:09 10° N 23:20:52 21° NNW 23:20:52 21° NNW visible
24 Mar ? 21:58:28 10° NNE 21:59:43 18° NNE 21:59:43 18° NNE visible
24 Mar ? 23:34:52 10° N 23:36:46 20° NNW 23:36:46 20° NNW visible
25 Mar ? 22:13:53 10° NNE 22:15:35 22° NNE 22:15:35 22° NNE visible
25 Mar ? 23:50:39 10° NNW 23:52:39 19° NNW 23:52:39 19° NNW visible
26 Mar ? 23:29:19 10° NNE 23:31:26 26° NNE 23:31:26 26° NNE visible
27 Mar ? 01:06:30 10° NNW 01:08:30 16° NW 01:08:30 16° NW visible
27 Mar ? 22:09:46 10° NE 22:10:13 12° NE 22:10:13 12° NE visible
27 Mar ? 23:44:48 10° N 23:47:16 30° N 23:47:16 30° N visible
28 Mar ? 01:22:32 10° NNW 01:24:19 13° NW 01:24:19 13° NW visible
28 Mar ? 22:24:46 10° NE 22:26:00 16° NE 22:26:00 16° NE visible
29 Mar ? 00:00:18 10° N 00:03:04 32° N 00:03:04 32° N visible
29 Mar ? 01:39:10 10° NW 01:40:06 11° NW 01:40:06 11° NW visible
29 Mar ? 22:39:54 10° NNE 22:41:46 21° NE 22:41:46 21° NE visible
30 Mar ? 00:15:50 10° N 00:18:50 31° NNW 00:18:50 31° NNW visible
30 Mar ? 22:55:07 10° NNE 22:57:31 26° NE 22:57:31 26° NE visible
31 Mar ? 00:31:25 10° N 00:34:34 28° NW 00:34:34 28° NW visible
31 Mar ? 23:10:23 10° NNE 23:13:13 33° NNE 23:13:13 33° NNE visible
01 Apr ? 00:47:02 10° N 00:50:17 23° NW 00:50:17 23° NW visible
